C/2020 F5 ( MASTER )

Japanese version
Home page
Updated on October 10, 2020

---------------------------------------------------------------------

* Profile

Discovery Date March 28, 2020
Magnitude 15.8 mag
Discoverer Mobile Astronomical System of the Telescope-Robots (MASTER) auto-detection system near San Juan, Argentina

* Pictures

* Orbital Elements

Epoch 2021 Mar. 7.0 TT = JDT 2459280.5
T 2021 Mar. 24.21608 TT                                 Rudenko
q   4.3262590            (2000.0)            P               Q
z  -0.0007354      Peri.  311.05962     +0.57200069     +0.81023789
 +/-0.0000107      Node   350.62947     -0.28569938     +0.05076341
e   1.0031815      Incl.   51.70680     -0.76888951     +0.58389866
From 201 observations 2020 Mar. 16-Sept. 15, mean residual 0".6.

* Finding Charts

* Magnitudes Graph

        m1 = 5.3 + 5 log d + 10.0 log r

---------------------------------------------------------------------

The orbital elements are published on M.P.E.C. 2020-S188.
The charts are made with StellaNavigator Ver.10 (AstroArts).
The magnitudes graphs are made with Comet for Windows.

---------------------------------------------------------------------

Copyright(C) Seiichi Yoshida (comet@aerith.net). All rights reserved.